FW1783 Weather Reports


Display with metric or nautical units.
time (UTC)temp
F
wind
direction
speed
MPH
gust
MPH
rain 1hr
in
rain 24hr
in
rain mn
in
humidity
%
barometer
mb
20210726013104 -90 196 5.0 11.0 0.00 0.00 0.00 1013.8
20210726011555 -90 355 6.0 14.0 0.00 0.00 0.00 1013.5
20210726010106 -90 360 4.0 14.0 0.00 0.00 0.00 1013.4
20210726004615 -90 309 6.0 12.0 0.00 0.00 0.00 1013.4
20210726003029 -90 290 4.0 10.0 0.00 0.00 0.00 1013.3
20210726001558 -90 211 3.0 11.0 0.00 0.00 0.00 1013.1
20210726000026 -90 272 6.0 12.0 0.00 0.00 0.00 1013.0
20210725234517 -90 157 5.0 11.0 0.00 0.00 0.00 1013.1
20210725233012 -90 319 5.0 12.0 0.00 0.00 0.00 1013.1
20210725231509 -90 296 5.0 10.0 0.00 0.00 0.00 1013.2
20210725230002 -90 360 4.0 10.0 0.00 0.00 0.00 1013.5
20210725224633 -90 312 3.0 9.0 0.00 0.00 0.00 1013.7
20210725223143 -90 360 1.0 9.0 0.00 0.00 0.00 1014.0
20210725221658 -90 284 2.0 11.0 0.00 0.00 0.00 1014.2
20210725220131 -90 259 5.0 9.0 0.00 0.00 0.00 1014.3
20210725214601 -90 259 2.0 8.0 0.00 0.00 0.00 1014.3
20210725213112 -90 212 2.0 10.0 0.00 0.00 0.00 1014.5
20210725211608 -90 264 1.0 8.0 0.00 0.00 0.00 1014.7
20210725210032 -90 289 3.0 9.0 0.00 0.00 0.00 1014.9
20210725204543 -90 292 3.0 11.0 0.00 0.00 0.00 1015.2
20210725203044 -90 5 2.0 10.0 0.00 0.00 0.00 1015.3
20210725201528 -90 44 1.0 5.0 0.00 0.00 0.00 1015.4
20210725200014 -90 184 3.0 14.0 0.00 0.00 0.00 1015.5
20210725194511 -90 198 0.0 9.0 0.00 0.00 0.00 1015.7
20210725193312 -90 360 2.0 9.0 0.00 0.00 0.00 1016.0
20210725191656 -90 175 1.0 7.0 0.00 0.00 0.00 1016.2
20210725190248 -90 360 0.0 3.0 0.00 0.00 0.00 1016.2
20210725184751 -90 300 5.0 9.0 0.00 0.00 0.00 1016.5
20210725183150 -90 86 1.0 9.0 0.00 0.00 0.00 1016.7
20210725181641 -90 198 0.0 10.0 0.00 0.00 0.00 1016.9
20210725180049 -90 321 2.0 10.0 0.00 0.00 0.00 1017.1
20210725174545 -90 86 0.0 6.0 0.00 0.00 0.00 1017.2
20210725173054 -90 269 2.0 10.0 0.00 0.00 0.00 1017.4
20210725171537 -90 45 0.0 10.0 0.00 0.00 0.00 1017.5
20210725170039 -90 241 2.0 8.0 0.00 0.00 0.00 1017.7
20210725164518 -90 300 2.0 10.0 0.00 0.00 0.00 1017.8
20210725163008 -90 310 5.0 10.0 0.00 0.00 0.00 1017.8
20210725161502 -90 360 3.0 11.0 0.00 0.00 0.00 1017.9
20210725160146 -90 355 1.0 10.0 0.00 0.00 0.00 1018.0
20210725154615 -90 99 3.0 11.0 0.00 0.00 0.00 1018.0
20210725153234 -90 313 4.0 11.0 0.00 0.00 0.00 1018.0
20210725151721 -90 317 3.0 11.0 0.00 0.00 0.00 1018.0
20210725150112 -90 323 2.0 12.0 0.00 0.00 0.00 1018.0
20210725144601 -90 236 3.0 9.0 0.00 0.00 0.00 1018.1
20210725143047 -90 96 2.0 10.0 0.00 0.00 0.00 1018.1
20210725141636 -90 253 1.0 10.0 0.00 0.00 0.00 1017.9
20210725140047 -90 360 1.0 5.0 0.00 0.00 0.00 1017.8
20210725134544 -90 323 1.0 5.0 0.00 0.00 0.00 1017.6
20210725133038 -90 293 2.0 6.0 0.00 0.00 0.00 1017.5
20210725131544 -90 247 0.0 5.0 0.00 0.00 0.00 1017.3
20210725130031 -90 290 0.0 2.0 0.00 0.00 0.00 1017.2
20210725124703 -90 285 0.0 0.0 0.00 0.00 0.00 1017.1
20210725123205 -90 246 0.0 4.0 0.00 0.00 0.00 1016.9
20210725121646 -90 254 1.0 3.0 0.00 0.00 0.00 1016.9
20210725120128 -90 64 0.0 0.0 0.00 0.00 0.00 1016.9
20210725114626 -90 243 0.0 2.0 0.00 0.00 0.00 1016.8
20210725113116 -90 44 0.0 2.0 0.00 0.00 0.00 1016.7
20210725111603 -90 303 0.0 2.0 0.00 0.00 0.00 1016.7
20210725110046 -90 282 0.0 2.0 0.00 0.00 0.00 1016.6
20210725104528 -90 322 2.0 6.0 0.00 0.00 0.00 1016.5
20210725103030 -90 313 2.0 5.0 0.00 0.00 0.00 1016.5
20210725101516 -90 275 1.0 3.0 0.00 0.00 0.00 1016.7
20210725100010 -90 190 1.0 3.0 0.00 0.00 0.00 1016.8
20210725094513 -90 279 0.0 3.0 0.00 0.00 0.00 1016.7
20210725093003 -90 284 0.0 3.0 0.00 0.00 0.00 1016.6
20210725091643 -90 163 0.0 5.0 0.00 0.00 0.00 1016.5
20210725090111 -90 360 1.0 4.0 0.00 0.00 0.00 1016.4
20210725084643 -90 360 1.0 6.0 0.00 0.00 0.00 1016.4
20210725083106 -90 360 2.0 9.0 0.00 0.00 0.00 1016.4
20210725081627 -90 355 0.0 6.0 0.00 0.00 0.00 1016.4
20210725080146 -90 317 2.0 8.0 0.00 0.00 0.00 1016.6
20210725074630 -90 311 5.0 10.0 0.00 0.00 0.00 1016.6
20210725073058 -90 312 1.0 8.0 0.00 0.00 0.00 1016.7
20210725071606 -90 323 1.0 6.0 0.00 0.00 0.00 1016.7
20210725070018 -90 360 1.0 5.0 0.00 0.00 0.00 1016.7
20210725064533 -90 317 2.0 5.0 0.00 0.00 0.00 1016.8
20210725063010 -90 311 2.0 7.0 0.00 0.00 0.00 1016.9
20210725061506 -90 292 3.0 5.0 0.00 0.00 0.00 1016.8
20210725054758 -90 284 1.0 5.0 0.00 0.00 0.00 1017.0
20210725053313 -90 240 3.0 8.0 0.00 0.00 0.00 1017.1
20210725051634 -90 279 2.0 7.0 0.00 0.00 0.00 1017.2
20210725050209 -90 267 1.0 7.0 0.00 0.00 0.00 1017.3
20210725044628 -90 277 1.0 4.0 0.00 0.00 0.00 1017.2
20210725043116 -90 229 1.0 8.0 0.00 0.00 0.00 1017.2
20210725041554 -90 257 3.0 9.0 0.00 0.00 0.00 1017.2
20210725040112 -90 292 4.0 10.0 0.00 0.00 0.00 1017.2
20210725034549 -90 288 3.0 9.0 0.00 0.00 0.00 1017.1
20210725033109 -90 296 2.0 9.0 0.00 0.00 0.00 1017.1
20210725031545 -90 355 3.0 8.0 0.00 0.00 0.00 1016.9
20210725030006 -90 165 1.0 8.0 0.00 0.00 0.00 1017.0
20210725023152 -90 360 3.0 8.0 0.00 0.00 0.00 1016.8
20210725021633 -90 18 4.0 12.0 0.00 0.00 0.00 1016.7
20210725020128 -90 315 4.0 10.0 0.00 0.00 0.00 1016.8
20210725014608 -90 264 3.0 11.0 0.00 0.00 0.00 1016.8